User: anonymous   Login
Location: Pittsburgh
(40.4410°N, 79.9960°W)
Time: 05:49:26
(UTC-04:00)
Language:

ARIANE 6 FM1 Upper Stage - Orbit

View from above orbital plane
View from above orbital plane
View from above satellite
View from above satellite

Ground track
Ground track

The orbit is defined by the following mean orbital elements,

1 60235U          26110.21699806 +.00000000 +00000-0 +13102-3 0 00000
2 60235  61.9937  72.8388 0056931 122.1039 238.5595 15.00864321    08
Epoch (UTC): 20 April 2026 05:12:28
Eccentricity: 0.0056931
inclination: 61.9937°
perigee height: 525 km
apogee height: 604 km
right ascension of ascending node: 72.8388°
argument of perigee: 122.1039°
revolutions per day: 15.00864321
mean anomaly at epoch: 238.5595°

The dashed part of the orbit path shows where the satellite is in the earth's shadow,  

DLR